Location: Brachbach
(49.1847°N, 9.7240°E)
Time: 17:10:06
(UTC+00:00)

Nadezhda 1 Rocket - Pass Details

Date: 06 August 2024
Orbit: 941 x 1004 km, 83.0° (Epoch: 19 September)

Event Time Altitude Azimuth Distance (km) Brightness Sun altitude
Rises 03:17:52 0° 128° (SE) 3,625 7.2 -6.8°
Reaches altitude 10° 03:21:46 10° 103° (ESE) 2,675 7.0 -6.3°
Maximum altitude 03:24:32 13° 76° (ENE) 2,427 7.4 -5.9°
Drops below altitude 10° 03:27:17 10° 49° (NE) 2,672 8.1 -5.6°
Sets 03:31:10 0° 24° (NNE) 3,619 8.1 -5.0°
